PulseSat

PulseSat

N-SAT-110 (JCSAT-110)

Last updated on Dec. 10, 2018, 12:08 a.m. UTC

1 26559U 00060A   18343.52109796 -.00000347  00000-0  00000+0 0  9995
2 26559   0.0617 100.4224 0001731 358.0415 277.4219  1.00271604 66571
UTC
Height (km)
Latitude
Longitude
Inclination
Orbital Period

Next 30 passes for location: Hong Kong

Rise time Rise Azimuth (degrees) Set time Set Azimuth (degrees) Duration Max altitude (degrees)

No matching passes for this satellites

PulseSat

PulseSat is the new satellites software and hardware trackering solution by Pulsely.
Satellite Two Line Element Set source: US Air Force Space Command

Download PulseSat for iOS
© 2017 Pulsely Limited